Home   Weather   Częstochowa   Past weeks

Flag for Poland Past Weather in Częstochowa, Poland — Yesterday and Last 2 Weeks

Now
27 °F

Ice fog.


Feels Like: 23 °F
Forecast: 21 / 32 °F
Wind: 3 mph from Southeast

Location: Katowice Airport

Current Time: Jan 22, 2017 at 12:44:01 am

Latest Report: Jan 22, 2017 at 12:00 am


Visibility: 1 mi

Pressure: 30.48 "Hg

Humidity: 100%

Dew Point: 27 °F

Location of CzęstochowaLocation

Past Weather in Częstochowa — Graph

°F

Częstochowa Temperature Yesterday

Maximum temperature yesterday: 34 °F (at 1:00 pm)
Minimum temperature yesterday: 23 °F (at 10:30 pm)
Average temperature yesterday: 30 °F

High & Low Weather Summary for the Past Weeks

 TemperatureHumidityPressure
High39 °F (Jan 13, 11:30 am)100% (Jan 15, 5:30 am)30.69 "Hg (Jan 15, 5:30 am)
Low-20 °F (Jan 7, 7:00 am)46% (Jan 9, 2:00 pm)29.30 "Hg (Jan 13, 2:00 pm)
Average19 °F84%30.16 "Hg
* Reported Jan 6 11:00 pm — Jan 21 11:30 pm, Częstochowa, Weather by CustomWeather, © 2017

Note: Actual official high and low records may vary slightly from our data, if they occured in-between our weather recording intervals... More about our weather records

Advertising

Częstochowa Weather History for the Previous 24 Hours

Scroll right to see more
 ConditionsComfort  
Time TempWeatherWind HumidityBarometerVisibility
11:30 pm
Sat, Jan 21
23 °FIce fog.2 mph100%30.51 "Hg1 mi
11:00 pm23 °FIce fog.1 mph93%30.51 "Hg0 mi
10:30 pm23 °FIce fog.1 mph100%30.48 "Hg0 mi
10:00 pm27 °FIce fog.1 mph100%30.48 "Hg0 mi
9:30 pm27 °FIce fog.2 mph100%30.48 "Hg0 mi
9:00 pm25 °FIce fog.1 mph100%30.48 "Hg0 mi
8:30 pm27 °FIce fog.1 mph93%30.48 "Hg0 mi
8:00 pm28 °FChilly.1 mph93%30.48 "Hg1 mi
7:30 pm28 °FIce fog.1 mph93%30.48 "Hg1 mi
7:00 pm30 °FIce fog.1 mph93%30.48 "Hg3 mi
6:30 pm32 °FIce fog.2 mph87%30.48 "Hg3 mi
6:00 pm32 °FIce fog.2 mph87%30.48 "Hg2 mi
5:30 pm32 °FIce fog.1 mph87%30.45 "Hg2 mi
5:00 pm32 °FIce fog.2 mph87%30.45 "Hg3 mi
4:30 pm32 °FOvercast.1 mph87%30.45 "Hg5 mi
4:00 pm32 °FPartly sunny.1 mph80%30.45 "Hg4 mi
3:30 pm32 °FScattered clouds.2 mph80%30.45 "Hg4 mi
3:00 pm34 °FPassing clouds.5 mph75%30.45 "Hg4 mi
2:30 pm34 °FScattered clouds.6 mph75%30.45 "Hg5 mi
2:00 pm34 °FScattered clouds.7 mph81%30.45 "Hg4 mi
1:30 pm34 °FScattered clouds.6 mph81%30.45 "Hg4 mi
1:00 pm34 °FBroken clouds.2 mph81%30.45 "HgN/A
12:30 pm32 °FBroken clouds.5 mph87%30.48 "HgN/A
12:00 pm32 °FPartly sunny.7 mph87%30.48 "HgN/A
11:30 am32 °FPartly sunny.7 mph87%30.48 "HgN/A
11:00 am32 °FPartly sunny.6 mph93%30.48 "Hg5 mi
10:30 am30 °FIce fog.5 mph93%30.48 "Hg2 mi
10:00 am30 °FIce fog.6 mph93%30.48 "Hg3 mi
9:30 am30 °FIce fog.10 mph93%30.48 "Hg3 mi
9:00 am30 °FIce fog.8 mph93%30.48 "Hg1 mi
8:30 am30 °FIce fog.6 mph93%30.48 "Hg1 mi
8:00 am30 °FIce fog.7 mph93%30.48 "Hg1 mi
7:30 am30 °FLight freezing rain. Ice fog.7 mph93%30.45 "Hg1 mi
7:00 am30 °FLight freezing rain. Ice fog.7 mph93%30.45 "Hg1 mi
6:30 am30 °FLight freezing rain. Ice fog.7 mph93%30.45 "Hg1 mi
6:00 am30 °FLight freezing rain. Ice fog.8 mph93%30.45 "Hg1 mi
5:30 am30 °FLight freezing rain. Ice fog.8 mph93%30.45 "Hg1 mi
5:00 am30 °FLight freezing rain. Ice fog.7 mph93%30.45 "Hg1 mi
4:30 am30 °FLight freezing rain. Ice fog.8 mph93%30.45 "Hg1 mi
4:00 am30 °FLight freezing rain. Ice fog.9 mph93%30.45 "Hg1 mi
3:30 am30 °FLight freezing rain. Ice fog.12 mph93%30.45 "Hg1 mi
3:00 am30 °FIce fog.8 mph93%30.45 "Hg1 mi
2:30 am30 °FLight freezing rain. Ice fog.9 mph93%30.45 "Hg1 mi
2:00 am30 °FLight freezing rain. Ice fog.8 mph93%30.45 "Hg1 mi
1:30 am28 °FLight freezing rain. Ice fog.10 mph100%30.48 "Hg1 mi
1:00 am28 °FLight freezing rain. Ice fog.8 mph100%30.48 "Hg1 mi
12:30 am28 °FLight freezing rain. Ice fog.10 mph100%30.48 "Hg1 mi
12:00 am28 °FLight freezing rain. Ice fog.8 mph100%30.48 "Hg1 mi
Weather by CustomWeather, © 2017

See weather overviewHow to use our weather pages